Location: Piotrkow Trybunalski
(51.4000°N, 19.6830°E)
Time: 10:49:38
(UTC+01:00)

STRAND 1 - Visible Passes

Search period start: 23 February 2024 00:00
Search period end: 04 March 2024 00:00
Orbit: 766 x 778 km, 98.4° (Epoch: 22 February)

Date Brightness Start Highest point End Pass type
(mag) Time Alt. Az. Time Alt. Az. Time Alt. Az.
23 Feb ? 03:34:28 10° E 03:38:05 20° NE 03:41:43 10° N visible
23 Feb ? 05:11:29 10° SSE 05:16:38 82° WSW 05:21:50 10° NNW visible
23 Feb ? 18:55:13 10° N 19:00:17 59° WNW 19:05:18 10° SSW visible
23 Feb ? 20:36:20 10° NNW 20:38:25 13° NW 20:40:31 10° WNW visible
24 Feb ? 03:02:06 10° ENE 03:03:50 12° NE 03:05:35 10° NNE visible
24 Feb ? 04:36:55 10° SE 04:41:55 54° ENE 04:46:57 10° N visible
24 Feb ? 18:20:22 10° NNE 18:25:32 76° ESE 18:30:39 10° S visible
24 Feb ? 20:00:22 10° N 20:04:09 21° WNW 20:07:54 10° WSW visible
25 Feb ? 04:02:54 10° ESE 04:07:22 31° ENE 04:11:50 10° N visible
25 Feb ? 05:41:22 10° S 05:46:19 48° W 05:51:20 10° NNW visible
25 Feb ? 17:45:46 10° NNE 17:50:36 40° E 17:55:24 10° SSE visible
25 Feb ? 19:25:03 10° N 19:29:42 36° WNW 19:34:20 10° SW visible
26 Feb ? 03:29:33 10° E 03:32:58 18° NE 03:36:24 10° NNE visible
26 Feb ? 05:06:18 10° SSE 05:11:27 89° WSW 05:16:39 10° NNW visible
26 Feb ? 18:50:01 10° N 18:55:06 65° WNW 19:00:09 10° SSW visible
26 Feb ? 20:30:53 10° NNW 20:33:19 13° NW 20:35:44 10° WNW visible
27 Feb ? 02:57:32 10° ENE 02:58:44 11° NE 02:59:56 10° NNE visible
27 Feb ? 04:31:48 10° SE 04:36:46 50° ENE 04:41:43 10° N visible
27 Feb ? 18:15:11 10° NNE 18:20:20 69° ESE 18:25:25 10° S visible
27 Feb ? 19:55:05 10° N 19:59:01 23° WNW 20:02:55 10° WSW visible
28 Feb ? 03:57:52 10° ESE 04:02:13 28° ENE 04:06:34 10° N visible
28 Feb ? 05:36:05 10° S 05:41:06 53° W 05:46:10 10° NNW visible
28 Feb ? 19:19:48 10° N 19:24:33 39° WNW 19:29:15 10° SW visible
29 Feb ? 03:24:37 10° E 03:27:50 17° NE 03:31:04 10° NNE visible
29 Feb ? 05:01:07 10° SSE 05:06:16 84° ENE 05:11:27 10° NNW visible
29 Feb ? 18:44:47 10° N 18:49:54 71° WNW 18:54:59 10° SSW visible
29 Feb ? 20:25:29 10° NNW 20:28:11 15° NW 20:30:53 10° W visible
01 Mar ? 04:26:41 10° SE 04:31:34 46° ENE 04:36:29 10° N visible
01 Mar ? 18:10:00 10° NNE 18:15:06 63° ESE 18:20:10 10° S visible
01 Mar ? 19:49:47 10° N 19:53:51 24° WNW 19:57:55 10° WSW visible
02 Mar ? 03:52:51 10° ESE 03:57:04 26° ENE 04:01:17 10° N visible
02 Mar ? 05:30:49 10° S 05:35:53 58° W 05:40:59 10° NNW visible
02 Mar ? 19:14:33 10° N 19:19:22 42° WNW 19:24:09 10° SW visible
03 Mar ? 03:19:43 10° E 03:22:42 16° NE 03:25:42 10° NNE visible
03 Mar ? 04:55:55 10° SSE 05:01:03 77° ENE 05:06:13 10° NNW visible
03 Mar ? 18:39:33 10° NNE 18:44:43 77° WNW 18:49:48 10° SSW visible
03 Mar ? 20:20:05 10° NNW 20:23:03 16° NW 20:26:00 10° W visible
